FUNCUBE-1 (AO-73)

Last updated on Mon Sep 21 2026 00:03:14 GMT+0000 (Coordinated Universal Time)

1 39444U 13066AE 26263.47588428 .00005184 00000+0 31342-3 0 9998 2 39444 97.8392 237.0499 0033817 237.8225 121.9723 15.10646885694041
UTC large
Height (km)
Speed (km/s)
/
Latitude / Longitude
Inclination (degrees)
Orbital Period (minutes)
Azimuth
Elevation
Range (km)
Doppler Factor

Next 0 passes for location: London (51.5072 / 0.1276)

No passes found over London.
FUNCUBE-1 (AO-73)